Temp
70 69 68 68 68 70 72 74 73 74 72 72 71 71 70 70 69 69 70 71 70 71 71 72 72 72 71 72 71 72 70 70 69 72 73 75 75 76 78 79 77 78 80
71 70 70 70 70 71 72 72 73 74 72 71 71 71 70 70 69 69 70 72 72 70 70 72 72 73 71 71 72 71 71 71 71 70 72 72 73 76 76 75 78 83 80
72 71 71 71 71 72 72 72 73 73 73 72 71 70 70 70 68 69 71 72 73 73 73 72 73 73 72 71 71 71 72 72 71 71 72 72 73 74 73 74 74 75 80
70 70 70 70 71 72 73 74 74 74 73 72 71 71 70 70 69 69 70 70 72 73 74 74 73 73 73 72 72 72 73 71 71 70 71 71 72 72 72 74 72 73 75
69 69 69 69 70 70 71 72 72 72 72 72 71 71 71 71 72 72 72 72 71 71 72 72 72 73 72 72 73 72 71 71 70 70 70 70 70 69 71 72 72 73 74
67 69 69 68 68 68 69 70 71 71 71 71 70 70 69 70 67 68 70 69 69 69 69 70 71 72 72 69 69 69 71 70 70 70 70 70 70 71 72 72 71 70 70
69 67 67 67 67 67 68 68 68 68 69 69 69 69 69 70 66 66 68 69 68 68 68 69 70 73 71 73 69 67 68 68 70 72 70 71 72 73 72 72 72 72 74
65 66 67 67 66 67 66 66 66 67 67 68 68 69 69 69 65 64 66 69 68 68 68 69 69 70 71 71 72 71 72 72 71 71 73 74 74 74 74 73 74 74 73
63 63 64 65 64 65 65 65 66 66 66 67 68 68 68 68 62 61 64 68 68 68 68 68 67 67 66 65 70 70 71 72 69 66 67 69 69 68 70 72 69 70 70
62 63 64 65 65 64 64 64 65 65 67 69 68 69 67 69 63 60 61 67 67 68 68 67 64 66 63 62 68 69 68 69 71 72 69 67 66 68 67 75 72 71 72
62 62 63 63 64 65 65 65 65 65 65 65 66 67 68 68 69 60 59 66 69 66 68 69 69 61 60 59 59 69 68 70 69 70 69 69 69 69 70 71 74 72 69
61 61 62 62 63 65 63 64 64 64 63 64 65 66 68 68 62 61 60 59 65 68 68 70 70 59 57 57 59 61 61 62 69 67 67 67 68 69 69 71 72 72 72
57 57 57 59 61 64 62 62 62 63 62 63 65 65 66 69 68 60 60 59 59 63 69 67 62 58 56 58 58 60 60 64 67 67 66 67 68 69 70 71 70 71 72
54 54 54 54 56 58 61 64 63 63 62 63 63 63 65 67 68 67 67 66 61 62 62 64 63 61 60 63 62 62 63 65 65 66 67 67 68 68 68 69 69 69 69
53 53 54 54 54 55 57 58 60 63 61 62 63 64 63 64 66 62 62 64 64 63 61 63 63 63 64 65 65 67 66 65 65 66 66 67 67 67 67 68 68 68 68
51 52 52 52 52 52 52 55 58 54 53 51 50 53 63 57 53 51 48 49 48 48 59 62 63 63 63 66 66 66 67 66 66 66 66 67 66 67 67 67 68 67 67
51 52 53 52 52 51 52 52 53 59 53 50 49 49 48 51 50 48 47 47 45 50 60 61 62 62 63 65 67 68 68 68 68 66 66 66 67 67 65 66 67 67 67
52 52 51 52 52 52 52 52 53 54 57 61 56 52 51 45 45 45 43 46 52 50 58 61 63 64 63 64 65 66 68 69 67 67 67 67 67 67 66 66 65 66 67
51 51 52 53 54 53 53 53 54 56 59 60 61 56 55 45 44 43 43 56 60 61 61 61 64 66 67 67 68 68 68 68 68 68 67 67 67 67 67 66 66 59 62
52 54 53 51 51 51 52 53 54 54 56 58 58 59 61 56 60 60 52 55 57 60 62 63 64 66 67 67 67 68 69 67 69 68 69 69 69 67 67 67 67 66 66
52 52 54 51 50 50 50 50 50 50 50 52 54 56 48 54 60 62 61 58 59 60 61 63 64 64 65 66 67 68 68 69 69 70 69 69 69 69 68 68 69 68 67
52 52 52 51 51 51 50 49 49 48 48 49 50 52 47 54 56 58 59 60 62 62 63 63 64 65 66 67 67 67 67 68 70 69 69 69 68 69 70 69 68 68 67
52 53 53 52 51 51 51 50 49 48 48 48 48 49 49 49 50 51 52 53 54 55 57 59 62 64 67 67 69 69 67 68 71 71 69 69 68 68 69 68 68 67 67
51 51 51 51 51 50 49 49 49 47 48 48 48 47 47 48 48 48 50 50 51 53 54 54 56 56 59 62 67 68 68 69 70 72 70 70 69 65 69 68 68 68 68
50 50 50 49 48 49 48 48 48 47 47 47 47 47 47 47 47 47 48 48 49 50 51 51 51 51 51 52 53 57 49 38 49 56 69 69 69 69 69 69 68 68 69
49 49 48 48 48 47 47 46 46 46 45 46 46 45 45 45 46 46 46 46 47 48 49 50 50 50 51 51 53 46 37 37 43 36 51 67 68 68 69 69 69 67 67
MSLP
1011.06 1011.04 1010.87 1010.98 1011.17 1011.14 1011.18 1010.96 1010.79 1010.33 1010.55 1010.77 1010.72 1010.92 1011.19 1011.48 1012.05 1012.74 1012.57 1012.55 1012.54 1012.33 1012.48 1012.62 1012.61 1012.82 1012.88 1012.90 1013.33 1013.68 1013.92 1014.08 1013.91 1013.48 1013.50 1013.26 1013.09 1012.95 1012.93 1012.92 1013.00 1012.98 1012.96
1010.78 1010.65 1010.88 1011.23 1011.19 1010.95 1010.59 1010.45 1010.04 1009.99 1010.04 1010.10 1010.54 1010.80 1010.88 1011.07 1011.42 1011.75 1011.71 1011.65 1011.83 1012.01 1011.97 1012.02 1011.53 1011.86 1011.99 1012.09 1012.53 1012.69 1012.91 1013.17 1013.25 1013.07 1013.06 1013.02 1012.93 1012.71 1012.72 1012.84 1012.69 1012.50 1012.50
1010.75 1010.88 1011.07 1011.29 1011.14 1010.63 1010.31 1010.15 1009.97 1010.02 1009.83 1010.01 1010.29 1010.47 1010.52 1010.72 1011.05 1011.29 1011.23 1011.11 1010.93 1011.04 1011.15 1010.97 1010.69 1010.74 1011.05 1011.35 1011.58 1011.86 1012.11 1012.22 1012.41 1012.57 1012.32 1012.36 1012.43 1012.59 1012.57 1012.62 1012.49 1012.37 1012.15
1011.32 1011.23 1010.97 1010.78 1010.48 1010.08 1010.00 1009.98 1009.85 1009.78 1009.75 1009.79 1009.87 1010.03 1010.21 1010.42 1010.57 1010.67 1010.69 1010.62 1010.35 1010.29 1010.24 1010.32 1010.19 1010.31 1010.42 1010.61 1010.88 1011.06 1011.38 1011.65 1011.69 1011.79 1011.96 1011.98 1012.05 1012.14 1012.33 1012.17 1012.16 1012.06 1011.89
1011.33 1011.22 1010.59 1010.43 1009.93 1009.60 1009.23 1009.41 1009.26 1009.23 1009.29 1009.37 1009.50 1009.65 1009.76 1009.91 1009.90 1010.03 1009.83 1009.99 1010.02 1009.94 1009.84 1009.74 1009.85 1009.89 1009.83 1009.79 1010.03 1010.26 1010.57 1010.83 1010.95 1011.00 1011.18 1011.43 1011.48 1011.72 1011.58 1011.42 1011.60 1011.58 1011.39
1011.14 1011.05 1010.82 1010.66 1010.22 1010.15 1009.72 1008.93 1008.97 1009.01 1008.87 1008.89 1009.05 1009.13 1009.20 1009.41 1009.40 1009.45 1009.59 1009.56 1009.76 1009.64 1009.54 1009.52 1009.39 1009.35 1009.15 1009.17 1009.23 1009.49 1009.56 1009.85 1009.97 1010.03 1010.23 1010.34 1010.29 1010.41 1010.71 1010.81 1011.02 1011.27 1011.23
1011.72 1011.39 1011.22 1010.97 1010.54 1010.06 1009.55 1009.35 1009.11 1008.82 1008.78 1008.74 1008.77 1008.81 1008.78 1008.68 1008.66 1008.90 1009.19 1009.22 1009.51 1009.40 1009.31 1009.16 1009.07 1008.85 1008.77 1008.67 1008.52 1008.86 1009.13 1009.39 1009.27 1009.21 1009.13 1009.18 1009.30 1009.42 1009.90 1010.32 1010.41 1010.50 1010.27
1011.89 1011.54 1011.13 1010.80 1010.47 1009.93 1009.67 1009.50 1008.98 1008.76 1008.57 1008.39 1008.26 1008.31 1008.32 1008.30 1008.31 1008.51 1008.70 1008.91 1009.11 1008.95 1008.94 1008.95 1008.85 1008.61 1008.46 1008.40 1008.36 1008.33 1008.44 1008.49 1008.53 1008.65 1008.46 1008.53 1008.44 1008.50 1008.86 1008.95 1009.18 1009.69 1010.15
1011.95 1011.42 1010.92 1010.63 1010.33 1009.92 1009.38 1008.92 1008.51 1008.54 1008.47 1008.35 1007.98 1007.69 1007.85 1007.81 1007.74 1007.81 1008.31 1008.49 1008.48 1008.37 1008.40 1008.39 1008.39 1008.30 1008.08 1008.06 1008.15 1008.04 1007.94 1007.79 1007.71 1007.76 1007.72 1007.75 1007.82 1007.90 1008.04 1008.71 1008.97 1009.26 1009.45
1012.04 1011.58 1011.02 1010.47 1010.02 1009.49 1009.05 1008.50 1008.23 1007.87 1007.61 1007.39 1007.42 1007.27 1007.04 1007.03 1006.96 1007.17 1007.64 1007.83 1007.75 1007.60 1007.60 1007.70 1007.76 1007.67 1007.51 1007.55 1007.60 1007.45 1007.43 1007.13 1007.19 1007.08 1007.16 1007.28 1007.51 1007.49 1007.50 1007.65 1007.87 1008.15 1008.20
1011.91 1011.42 1010.91 1010.28 1009.79 1009.19 1008.66 1008.16 1007.79 1007.69 1007.39 1007.17 1006.92 1006.65 1006.61 1006.60 1006.44 1006.40 1006.61 1007.00 1007.00 1006.87 1006.77 1006.69 1006.72 1006.80 1006.77 1006.66 1006.80 1006.68 1006.43 1006.36 1006.53 1006.76 1006.72 1006.76 1006.64 1006.74 1006.92 1007.15 1007.00 1007.15 1007.21
1011.82 1011.23 1010.44 1009.79 1009.20 1008.67 1008.31 1007.81 1007.50 1007.13 1006.85 1006.48 1006.21 1005.92 1005.72 1005.63 1005.60 1005.64 1005.68 1005.91 1005.89 1006.04 1005.91 1005.76 1005.75 1005.82 1005.87 1005.84 1005.89 1005.81 1005.92 1006.15 1006.21 1006.25 1006.31 1005.98 1005.83 1006.22 1006.25 1006.45 1006.43 1006.52 1006.38
1011.95 1011.35 1010.73 1009.85 1008.98 1008.07 1007.63 1007.14 1006.92 1006.60 1006.23 1005.80 1005.54 1005.25 1004.97 1004.80 1004.82 1004.81 1004.74 1004.82 1005.00 1005.31 1005.12 1004.95 1004.94 1004.99 1005.00 1005.15 1005.20 1005.10 1005.33 1005.71 1005.69 1005.71 1005.54 1005.24 1005.22 1005.07 1005.53 1005.58 1005.88 1006.03 1006.23
1011.85 1011.22 1010.55 1009.85 1009.08 1008.29 1007.40 1006.55 1006.01 1005.74 1005.45 1005.20 1004.97 1004.69 1004.38 1004.19 1004.02 1003.99 1003.95 1003.98 1004.15 1004.48 1004.51 1004.36 1004.32 1004.52 1004.56 1004.36 1004.48 1004.60 1004.75 1004.63 1004.67 1004.62 1004.66 1004.59 1004.59 1004.85 1004.75 1005.10 1005.14 1005.48 1005.77
1011.63 1010.84 1010.10 1009.46 1008.84 1008.11 1007.35 1006.62 1005.82 1004.99 1004.82 1004.58 1004.21 1004.02 1003.79 1003.44 1003.15 1003.16 1003.37 1003.37 1003.43 1003.49 1003.80 1003.99 1003.89 1003.84 1003.71 1003.66 1003.61 1003.53 1003.54 1003.63 1003.73 1003.77 1003.92 1003.96 1003.98 1004.21 1004.29 1004.28 1004.45 1004.74 1004.80
1011.18 1010.36 1009.71 1009.06 1008.35 1007.73 1007.05 1006.00 1005.14 1004.53 1004.05 1003.82 1003.68 1003.84 1003.19 1002.83 1002.73 1002.86 1002.93 1003.02 1003.20 1003.63 1003.62 1003.43 1003.12 1003.00 1002.85 1002.73 1002.77 1002.64 1002.46 1002.44 1002.49 1002.71 1002.79 1002.85 1002.98 1003.01 1003.41 1003.75 1003.98 1003.96 1004.23
1010.99 1010.17 1009.35 1008.55 1007.89 1007.27 1006.71 1006.17 1005.19 1003.94 1003.26 1003.08 1002.83 1002.72 1002.70 1002.35 1002.06 1002.15 1002.31 1002.93 1003.09 1003.34 1003.02 1002.68 1002.58 1002.40 1002.21 1001.96 1001.73 1001.53 1001.39 1001.28 1001.35 1001.74 1001.90 1001.96 1001.96 1002.06 1002.37 1003.13 1003.47 1003.51 1003.40
1010.92 1010.11 1009.18 1008.13 1007.45 1006.91 1006.37 1005.81 1005.23 1004.44 1003.26 1002.42 1001.99 1002.03 1001.57 1001.55 1001.62 1001.76 1002.14 1002.58 1003.03 1002.83 1002.26 1001.88 1001.63 1001.41 1001.29 1001.14 1000.91 1000.67 1000.60 1000.60 1000.67 1000.82 1000.96 1001.05 1001.21 1001.21 1001.68 1001.84 1002.34 1002.58 1002.55
1011.01 1010.24 1009.40 1008.46 1007.45 1006.69 1006.06 1005.37 1004.66 1003.99 1003.15 1002.36 1001.71 1001.51 1001.17 1001.22 1001.24 1001.38 1001.74 1001.61 1001.24 1001.03 1000.96 1000.94 1000.76 1000.59 1000.35 1000.20 1000.10 1000.11 1000.07 999.93 999.73 999.73 999.89 1000.15 1000.21 1000.42 1000.53 1000.86 1001.20 1001.23 1001.68
1011.16 1010.60 1009.82 1009.02 1008.11 1007.28 1006.71 1005.84 1004.92 1004.29 1003.46 1002.74 1002.24 1001.57 1001.26 1001.33 1001.15 1000.94 1000.87 1000.61 1000.53 1000.19 1000.02 999.94 999.93 999.85 999.61 999.45 999.37 999.35 999.30 999.18 999.14 999.16 999.04 999.14 999.30 999.67 999.82 999.98 1000.05 1000.35 1000.89
1011.58 1010.89 1010.22 1009.48 1008.84 1008.20 1007.52 1006.76 1005.98 1005.29 1004.52 1003.67 1003.10 1002.56 1002.01 1001.27 1000.87 1000.55 1000.17 999.99 999.74 999.41 999.30 999.20 999.03 998.89 998.71 998.59 998.56 998.49 998.40 998.22 998.19 998.27 998.36 998.40 998.48 998.70 998.92 999.15 999.04 999.23 999.73
1011.86 1011.29 1010.67 1010.08 1009.46 1008.66 1007.94 1007.31 1006.68 1006.07 1005.36 1004.66 1004.01 1003.35 1002.70 1001.99 1001.49 1000.90 1000.33 999.90 999.23 999.00 998.87 998.66 998.35 998.14 997.94 997.75 997.62 997.58 997.51 997.45 997.35 997.37 997.40 997.60 997.72 997.85 997.99 998.23 998.38 998.63 998.77
1012.26 1011.71 1011.11 1010.56 1010.04 1009.26 1008.57 1007.87 1007.23 1006.68 1006.05 1005.47 1004.87 1004.17 1003.56 1002.97 1002.44 1001.97 1001.53 1000.99 1000.37 999.84 999.32 998.80 998.17 997.70 997.46 997.29 997.14 997.02 996.80 996.59 996.32 996.43 996.43 996.60 996.84 996.99 997.10 997.33 997.42 997.68 998.05
1012.76 1012.16 1011.71 1011.18 1010.64 1010.01 1009.34 1008.74 1008.05 1007.42 1006.82 1006.11 1005.38 1004.83 1004.32 1003.73 1003.17 1002.73 1002.20 1001.62 1000.95 1000.30 999.85 999.39 998.86 998.36 997.84 997.28 996.67 996.47 996.26 995.97 995.71 995.55 995.65 995.68 995.74 995.89 996.18 996.33 996.42 996.61 996.76
1013.12 1012.62 1012.18 1011.75 1011.26 1010.73 1010.09 1009.46 1008.82 1008.24 1007.55 1006.85 1006.16 1005.58 1004.94 1004.31 1003.67 1003.19 1002.46 1001.97 1001.18 1000.67 1000.03 999.64 999.23 998.88 998.45 997.96 997.43 996.90 996.42 996.18 995.75 995.22 995.04 994.97 994.84 994.83 994.95 995.20 995.42 995.59 995.76
1013.45 1013.02 1012.62 1012.17 1011.74 1011.21 1010.66 1010.12 1009.49 1008.86 1008.37 1007.75 1007.02 1006.29 1005.81 1005.29 1004.60 1003.63 1002.96 1001.78 1001.49 1000.71 1000.15 999.74 999.30 998.86 998.31 997.74 997.18 996.78 996.41 996.08 995.63 995.13 995.02 994.06 993.82 993.92 993.94 994.11 994.34 994.52 994.65
Wind_Speed
4 2 2 4 5 7 11 14 12 5 6 8 9 9 9 9 8 8 8 8 9 7 8 10 10 8 7 6 6 7 7 7 8 4 4 2 3 4 5 4 5 7 7
4 3 2 3 8 10 10 8 5 6 5 7 7 9 9 8 5 8 8 8 9 9 9 9 9 7 9 8 7 10 9 9 8 11 5 4 7 4 4 5 5 5 5
4 3 3 4 4 2 3 3 3 3 2 3 5 7 8 8 8 7 8 9 9 10 11 11 11 6 8 7 8 8 8 7 9 7 6 4 5 4 5 4 5 5 5
4 3 4 5 3 1 2 1 1 1 1 3 4 5 5 6 8 9 9 10 10 11 11 11 9 9 10 9 9 10 8 8 8 8 6 5 5 3 3 4 5 4 6
4 6 6 7 6 6 6 5 5 5 4 4 4 4 5 6 6 8 8 8 9 9 8 8 7 8 13 12 7 9 10 9 8 8 8 5 5 4 6 4 6 2 4
7 8 5 6 6 6 7 5 5 5 5 5 5 5 6 5 8 9 7 5 5 6 7 7 6 10 11 12 16 15 13 11 12 9 8 9 10 8 4 5 4 3 3
5 6 8 8 8 8 8 7 7 7 5 6 6 5 6 6 8 9 12 5 6 7 7 6 7 6 6 7 8 12 10 11 11 10 11 11 9 9 6 6 6 5 4
7 6 7 7 8 10 6 8 8 5 7 7 7 7 6 6 9 10 12 7 6 8 8 8 8 8 7 7 6 7 10 10 12 9 12 10 10 7 10 8 9 6 2
9 9 7 5 8 9 10 9 9 6 7 7 6 8 7 8 11 11 6 6 8 10 9 9 9 10 10 11 9 9 9 9 8 16 16 15 14 14 11 5 6 6 5
8 9 8 10 10 9 9 9 9 7 9 7 10 10 12 11 12 14 10 5 7 7 7 9 13 12 13 13 10 10 10 10 7 7 5 10 10 10 14 13 8 9 5
11 10 10 10 10 10 9 8 9 8 6 8 9 10 10 11 11 14 14 7 7 7 8 7 7 16 18 16 14 10 12 9 7 7 5 4 5 6 7 9 9 9 5
13 14 13 12 9 9 9 10 9 9 9 9 9 9 8 9 13 12 15 15 12 9 10 8 8 13 17 17 12 15 16 10 6 5 5 6 5 4 6 8 10 9 5
14 15 15 15 14 12 10 9 9 9 8 9 9 8 8 7 7 14 16 15 15 10 8 10 12 12 15 13 15 14 12 7 8 8 9 7 6 6 4 5 6 7 8
15 14 12 12 14 15 11 10 7 8 9 9 9 9 9 8 8 7 7 7 10 8 10 10 9 9 9 9 6 8 7 7 8 9 9 7 3 4 7 6 5 5 5
13 12 12 10 11 11 11 10 10 9 8 9 9 8 8 8 9 8 9 6 5 7 3 4 5 5 5 6 7 8 7 7 9 8 8 8 7 6 6 6 6 7 8
13 11 10 9 9 8 9 11 12 15 16 16 16 13 10 12 11 10 10 11 7 1 3 4 4 5 5 6 7 8 8 9 8 8 9 8 8 9 7 6 7 9 10
13 14 11 11 8 8 8 8 10 11 15 14 16 16 14 16 13 10 10 5 8 8 5 6 6 7 8 7 7 7 8 8 8 8 8 9 9 8 8 7 7 9 11
14 19 11 10 9 7 7 8 8 9 10 9 9 10 11 12 14 12 5 8 3 5 6 7 9 8 8 8 8 7 7 7 8 9 9 9 8 8 7 8 7 9 8
11 10 12 11 9 9 8 8 8 9 8 9 7 6 8 5 5 4 12 6 6 7 7 8 9 9 8 8 8 8 8 8 8 8 8 8 8 7 8 8 8 10 10
11 20 16 10 10 10 9 9 9 9 8 7 7 7 6 2 4 4 4 4 5 7 6 8 8 9 8 8 8 8 9 9 9 8 7 7 8 8 9 10 10 9 9
9 10 18 9 9 8 8 9 9 9 9 9 9 10 20 5 6 7 5 3 6 6 7 8 8 8 8 8 8 9 9 10 9 9 7 8 8 8 9 9 10 11 10
8 9 9 9 9 9 9 8 9 9 9 9 9 10 16 9 9 9 7 6 6 6 6 7 8 8 9 9 9 9 9 11 10 9 8 9 8 9 9 9 9 8 6
8 10 10 9 9 12 10 9 9 10 10 10 9 9 9 8 8 9 9 9 8 7 7 7 7 8 8 9 10 10 9 10 10 9 9 9 9 9 9 10 10 9 9
9 10 10 9 10 9 10 10 9 11 10 9 9 10 10 9 9 10 9 9 9 8 7 7 7 10 9 9 8 9 9 10 8 10 13 10 9 9 10 10 10 12 10
8 9 9 9 9 9 9 10 9 10 9 9 10 10 10 10 10 10 10 9 8 8 9 8 7 11 12 15 14 14 10 15 12 13 9 12 13 15 12 10 11 10 13
7 8 7 7 8 8 8 8 9 9 9 9 9 10 10 11 10 10 10 12 11 10 11 7 9 14 16 12 14 14 14 13 9 9 9 11 11 11 10 12 16 10 13
Wind_Direction
260 203 274 295 279 271 269 262 238 218 191 199 200 199 210 211 196 208 211 223 230 219 204 218 224 215 217 201 201 208 212 203 230 243 238 258 264 257 261 251 247 236 238
265 282 306 274 269 271 266 259 253 227 197 206 211 206 214 222 207 222 221 219 225 219 224 225 220 211 213 204 207 210 208 207 215 233 214 230 230 225 248 262 250 240 232
307 291 273 259 270 317 14 336 349 301 265 230 211 218 222 223 221 243 235 236 229 235 235 237 244 208 227 225 215 214 216 207 210 226 233 211 232 225 240 246 249 249 244
307 274 252 235 218 160 72 44 37 71 211 245 258 244 219 212 218 237 242 244 239 238 236 234 236 225 230 224 220 221 216 216 209 212 233 234 216 208 218 231 246 222 238
235 258 235 247 243 228 172 201 199 185 183 191 210 250 255 236 232 236 233 236 232 234 237 240 240 227 225 222 223 224 211 217 215 214 223 225 210 187 207 191 225 236 244
293 266 278 274 274 278 290 214 210 229 216 205 210 205 208 234 237 224 226 223 235 240 248 257 252 252 250 230 225 232 214 210 215 209 216 219 215 211 187 190 174 186 239
274 256 270 289 288 265 244 234 233 225 228 229 231 220 230 237 227 219 213 218 233 241 251 265 277 267 266 271 254 231 230 232 233 214 217 217 218 206 188 206 201 198 218
326 305 296 289 272 272 268 267 273 256 237 230 228 228 227 244 242 224 218 218 227 242 243 247 250 265 266 272 267 233 230 233 233 228 223 230 228 197 203 204 205 203 242
320 316 312 304 295 288 278 266 248 227 247 254 252 237 222 242 233 241 226 235 244 252 248 240 237 251 255 248 251 251 247 253 232 227 231 229 214 213 200 160 193 178 206
314 309 303 308 300 296 289 282 270 248 248 246 247 242 235 232 222 225 200 222 241 248 248 239 224 236 248 241 235 233 245 245 255 258 229 246 244 236 207 205 189 202 182
303 304 298 292 293 289 289 286 284 274 260 257 249 258 249 237 245 219 216 211 229 247 248 251 235 218 236 241 224 231 227 237 228 244 226 246 220 205 209 218 207 200 184
339 325 312 299 290 286 282 285 281 268 265 257 256 256 252 251 234 229 224 211 222 237 247 250 246 214 226 236 230 226 232 228 245 234 237 227 218 227 222 216 214 222 233
329 325 317 308 308 294 275 276 281 272 268 272 267 261 260 256 242 225 231 226 227 240 245 241 238 228 229 239 239 235 228 228 233 238 238 238 228 209 222 233 218 226 237
318 313 308 304 306 306 300 279 266 270 273 262 260 258 258 255 247 233 232 234 236 226 241 245 244 245 236 238 238 234 226 216 217 226 232 232 217 215 217 223 237 205 214
308 300 298 296 295 299 299 298 292 270 256 269 267 259 256 254 252 234 232 231 230 234 232 241 239 224 226 234 238 236 225 215 218 223 224 221 208 208 224 214 227 230 220
312 311 304 297 294 290 296 303 287 261 262 257 257 252 267 259 269 249 239 237 249 221 192 234 225 221 227 234 228 241 235 217 220 221 219 215 209 197 206 217 222 226 230
321 317 312 304 295 289 293 296 306 301 263 254 257 261 246 251 255 237 247 214 185 165 222 227 232 241 244 242 235 225 234 229 220 218 220 221 213 203 172 206 216 229 234
332 324 318 307 301 291 283 284 283 284 293 292 267 249 262 248 252 252 170 142 174 222 225 229 232 228 235 240 239 234 233 240 225 226 219 218 218 197 201 203 209 235 235
333 334 336 336 335 315 294 284 277 277 293 296 299 293 278 277 266 204 171 227 234 232 224 229 233 239 240 241 244 245 241 244 233 222 214 212 213 206 208 211 217 220 234
341 343 353 341 344 347 344 346 347 349 340 337 330 321 315 292 275 249 207 228 239 247 241 235 233 237 241 238 240 245 251 243 244 237 227 212 203 204 221 218 211 224 232
341 341 349 350 349 347 345 350 347 346 346 345 344 347 342 307 299 293 283 233 251 256 247 244 244 240 240 241 244 245 245 249 241 240 236 230 223 211 212 222 233 212 216
343 342 343 347 345 354 356 358 357 350 351 349 345 343 345 4 358 348 332 325 316 289 279 267 262 258 255 253 246 243 239 243 242 232 230 232 228 224 222 220 225 224 232
348 351 353 354 354 351 356 1 6 360 356 357 354 353 353 357 357 353 348 344 336 332 334 324 300 279 269 262 257 250 241 237 237 236 233 228 224 220 216 218 218 216 210
351 358 1 360 3 357 357 357 359 358 356 355 7 1 355 355 357 350 345 339 333 332 333 331 325 322 330 324 291 261 252 255 249 242 231 236 233 221 218 216 214 215 221
357 358 359 356 355 357 353 357 358 356 356 1 2 3 0 350 357 349 344 340 325 327 334 337 335 331 325 318 307 302 341 339 302 264 249 237 235 228 212 217 222 221 221
350 353 351 348 352 348 352 350 350 355 354 352 357 359 354 349 350 347 350 351 334 336 339 337 335 332 325 316 309 310 314 308 305 310 279 248 235 240 233 216 228 225 228